Date String (YYYY-MM-DD hh:mm:ss) UTC,Instrument flags,Ambient pressure (hPa),Sample flow (lpm),Bypass flow (lpm),Sample temperature (°C),Ambient temperature (°C),ASC tube jacket temperature (°C),LED temperature (°C),Box temperature (°C),Sample RH (%),Span deviation,Mass concentration (μg/m³),Mass concentration (μg/m³),Mass concentration (μg/m³)
DateTimeUTC,F1_M11,P_M11,Q1_M11,Q2_M11,T1_M11,T2_M11,T3_M11,T4_M11,T5_M11,U1_M11,ZSPAN_M11,X0_M11,X2_M11,X1_M11
2022-03-24 16:00:00,,0825.0,4.99,0.00,24.5,23.7,00.0,33.4,26.4,11.8,0000.0,0003.54,0001.34,0000.90
2022-03-24 16:01:00,,0825.1,4.99,0.00,24.5,23.7,00.0,33.4,26.4,11.8,0000.0,0003.52,0001.36,0000.91
2022-03-24 16:02:00,,0825.1,5.01,0.00,24.5,23.7,00.0,33.4,26.4,12.2,0000.0,0003.70,0001.42,0000.91
2022-03-24 16:03:00,,0825.1,4.99,0.00,24.5,23.7,00.0,33.4,26.4,12.1,0000.0,0003.82,0001.44,0000.92
2022-03-24 16:04:00,,0825.1,4.99,0.00,24.5,23.7,00.0,33.4,26.4,12.2,0000.0,0004.06,0001.46,0000.93
2022-03-24 16:05:00,,0825.0,5.03,0.00,24.5,23.7,00.0,33.4,26.4,12.5,0000.0,0004.08,0001.47,0000.93
2022-03-24 16:06:00,,0825.0,5.01,0.00,24.6,23.8,00.0,33.4,26.4,13.0,0000.0,0004.14,0001.52,0000.93
2022-03-24 16:07:00,,0825.1,5.00,0.00,24.6,23.8,00.0,33.4,26.5,12.7,0000.0,0004.09,0001.55,0000.94
2022-03-24 16:08:00,,0825.1,4.99,0.00,24.6,23.9,00.0,33.4,26.5,12.5,0000.0,0005.23,0001.55,0000.94
2022-03-24 16:09:00,,0825.1,4.99,0.00,24.6,23.9,00.0,33.5,26.5,12.7,0000.0,0005.78,0001.55,0000.95
2022-03-24 16:10:00,,0825.1,5.00,0.00,24.7,23.9,00.0,33.5,26.6,12.6,0000.0,0005.40,0001.56,0000.95
2022-03-24 16:11:00,,0825.1,4.99,0.00,24.7,23.9,00.0,33.5,26.6,12.0,0000.0,0004.82,0001.59,0000.96
2022-03-24 16:12:00,,0825.2,4.99,0.00,24.7,24.0,00.0,33.5,26.6,12.1,0000.0,0005.01,0001.65,0000.96
2022-03-24 16:13:00,,0825.2,5.01,0.00,24.7,24.0,00.0,33.5,26.6,12.5,0000.0,0005.26,0001.69,0000.96
2022-03-24 16:14:00,,0825.2,5.00,0.00,24.7,24.0,00.0,33.5,26.6,12.1,0000.0,0005.41,0001.77,0000.97
2022-03-24 16:15:00,,0825.2,4.99,0.00,24.8,24.0,00.0,33.6,26.7,12.4,0000.0,0005.32,0001.81,0000.97
2022-03-24 16:16:00,,0825.2,5.01,0.00,24.8,24.0,00.0,33.6,26.7,12.5,0000.0,0005.37,0001.84,0000.98
2022-03-24 16:17:00,,0825.3,4.97,0.00,24.8,24.1,00.0,33.6,26.7,11.5,0000.0,0005.62,0001.87,0000.98
2022-03-24 16:18:00,,0825.2,5.00,0.00,24.8,24.1,00.0,33.6,26.7,11.3,0000.0,0005.81,0001.86,0000.97
2022-03-24 16:19:00,,0825.2,5.00,0.00,24.8,24.1,00.0,33.6,26.7,11.4,0000.0,0004.70,0001.86,0000.98
2022-03-24 16:20:00,,0825.2,5.02,0.00,24.8,24.1,00.0,33.7,26.7,12.4,0000.0,0004.56,0001.86,0000.99
2022-03-24 16:21:00,,0825.2,4.99,0.00,24.8,24.1,00.0,33.7,26.7,12.7,0000.0,0005.94,0001.91,0001.00
2022-03-24 16:22:00,,0825.2,4.99,0.00,24.8,24.1,00.0,33.7,26.7,12.5,0000.0,0006.40,0001.90,0001.01
2022-03-24 16:23:00,,0825.2,5.00,0.00,24.9,24.2,00.0,33.7,26.7,12.5,0000.0,0007.63,0001.94,0001.02
2022-03-24 16:24:00,,0825.2,4.99,0.00,24.9,24.2,00.0,33.7,26.8,12.0,0000.0,0007.63,0001.94,0001.03
2022-03-24 16:25:00,,0825.2,5.01,0.00,24.9,24.2,00.0,33.7,26.8,11.8,0000.0,0008.15,0001.89,0001.02
2022-03-24 16:26:00,,0825.3,5.00,0.00,24.9,24.3,00.0,33.7,26.8,11.1,0000.0,0008.89,0001.90,0001.02
2022-03-24 16:27:00,,0825.3,4.99,0.00,25.0,24.4,00.0,33.8,26.9,11.0,0000.0,0009.05,0001.90,0001.01
2022-03-24 16:28:00,,0825.3,5.00,0.00,25.0,24.4,00.0,33.8,26.9,10.5,0000.0,0009.24,0001.86,0001.00
2022-03-24 16:29:00,,0825.3,5.01,0.00,25.0,24.4,00.0,33.8,26.9,10.7,0000.0,0009.56,0001.95,0001.01
2022-03-24 16:30:00,,0825.4,5.00,0.00,25.1,24.4,00.0,33.8,27.0,12.4,0000.0,0009.71,0002.02,0000.99
2022-03-24 16:31:00,,0825.3,4.99,0.00,25.1,24.4,00.0,33.9,27.0,12.1,0000.0,0009.68,0002.04,0000.99
2022-03-24 16:32:00,,0825.3,5.00,0.00,25.1,24.4,00.0,33.9,27.0,11.7,0000.0,0009.05,0002.07,0000.98
2022-03-24 16:33:00,,0825.3,4.99,0.00,25.1,24.4,00.0,33.9,26.9,11.5,0000.0,0008.90,0002.07,0000.98
2022-03-24 16:34:00,,0825.3,5.00,0.00,25.1,24.4,00.0,33.9,27.0,11.7,0000.0,0008.01,0002.05,0000.98
2022-03-24 16:35:00,,0825.3,5.00,0.00,25.1,24.4,00.0,33.9,27.0,12.1,0000.0,0008.00,0002.09,0000.99
2022-03-24 16:36:00,,0825.3,5.01,0.00,25.1,24.4,00.0,34.0,27.0,12.1,0000.0,0007.60,0002.11,0000.99
2022-03-24 16:37:00,,0825.3,4.99,0.00,25.1,24.4,00.0,34.0,27.0,11.7,0000.0,0006.56,0002.20,0001.00
2022-03-24 16:38:00,,0825.3,4.99,0.00,25.2,24.4,00.0,34.0,27.0,11.2,0000.0,0006.72,0002.24,0001.02
2022-03-24 16:39:00,,0825.3,4.99,0.00,25.2,24.5,00.0,34.0,27.1,11.4,0000.0,0006.75,0002.29,0001.03
2022-03-24 16:40:00,,0825.3,5.00,0.00,25.2,24.5,00.0,34.0,27.1,11.5,0000.0,0006.39,0002.26,0001.04
2022-03-24 16:41:00,,0825.3,4.99,0.00,25.2,24.5,00.0,34.0,27.1,11.8,0000.0,0006.14,0002.23,0001.05
2022-03-24 16:42:00,,0825.3,5.00,0.00,25.2,24.5,00.0,34.0,27.1,11.0,0000.0,0006.19,0002.25,0001.07
2022-03-24 16:43:00,,0825.4,5.01,0.00,25.2,24.5,00.0,34.1,27.1,10.7,0000.0,0005.79,0002.17,0001.06
2022-03-24 16:44:00,,0825.4,5.01,0.00,25.2,24.5,00.0,34.1,27.1,10.7,0000.0,0005.63,0002.14,0001.06
2022-03-24 16:45:00,,0825.4,5.00,0.00,25.2,24.5,00.0,34.1,27.1,11.1,0000.0,0005.47,0002.10,0001.05
2022-03-24 16:46:00,,0825.4,5.00,0.00,25.2,24.5,00.0,34.1,27.1,11.6,0000.0,0005.21,0002.00,0001.03
2022-03-24 16:47:00,,0825.4,5.00,0.00,25.3,24.6,00.0,34.1,27.1,11.1,0000.0,0005.11,0001.94,0001.02
2022-03-24 16:48:00,,0825.4,5.00,0.00,25.3,24.6,00.0,34.1,27.2,11.1,0000.0,0005.10,0001.89,0001.01
2022-03-24 16:49:00,,0825.4,5.00,0.00,25.3,24.6,00.0,34.1,27.2,10.9,0000.0,0005.55,0001.84,0001.00
2022-03-24 16:50:00,,0825.4,5.01,0.00,25.3,24.6,00.0,34.2,27.2,10.8,0000.0,0005.26,0001.81,0000.99
2022-03-24 16:51:00,,0825.4,5.00,0.00,25.4,24.7,00.0,34.2,27.3,10.9,0000.0,0005.07,0001.78,0000.98
2022-03-24 16:52:00,,0825.4,5.00,0.00,25.4,24.7,00.0,34.2,27.3,10.7,0000.0,0005.06,0001.74,0000.98
2022-03-24 16:53:00,,0825.3,5.01,0.00,25.4,24.7,00.0,34.2,27.3,10.6,0000.0,0005.13,0001.72,0000.96
2022-03-24 16:54:00,,0825.4,4.99,0.00,25.4,24.7,00.0,34.2,27.3,10.8,0000.0,0005.20,0001.74,0000.97
2022-03-24 16:55:00,,0825.4,5.00,0.00,25.4,24.7,00.0,34.3,27.3,10.8,0000.0,0005.24,0001.73,0000.97
2022-03-24 16:56:00,,0825.4,5.00,0.00,25.4,24.7,00.0,34.3,27.3,10.5,0000.0,0005.35,0001.74,0000.97
2022-03-24 16:57:00,,0825.4,5.01,0.00,25.4,24.7,00.0,34.3,27.3,10.7,0000.0,0005.34,0001.74,0000.97
2022-03-24 16:58:00,,0825.4,5.00,0.00,25.5,24.8,00.0,34.3,27.4,10.7,0000.0,0006.31,0001.77,0000.97
2022-03-24 16:59:00,,0825.4,5.00,0.00,25.5,24.8,00.0,34.3,27.4,10.5,0000.0,0006.01,0001.68,0000.96
